Regional Weather Roundup
Issued by NWS Bismarck, ND

Home | Current Version | Previous Version | Text Only | Print | Product List | Glossary On
Versions: 1 2 3 4 5 6 7 8 9 10 11 12 13 14 15 16 17 18 19 20 21 22 23 24 25 26 27 28 29 30 31 32 33 34 35 36 37 38 39 40 41 42 43 44 45 46 47 48 49 50
000
ASUS43 KBIS 301020
RWRBIS

NWR BROADCAST TEXT
NATIONAL WEATHER SERVICE BISMARCK ND
500 AM CDT WED JUL 30 2014

NOTE: "FAIR" INDICATES FEW OR NO CLOUDS BELOW 12,000 FEET WITH NO
SIGNIFICANT WEATHER AND/OR OBSTRUCTIONS TO VISIBILITY.


CITY           SKY/WX    TMP DP  RH WIND       PRES   REMARKS
WILLISTON      CLEAR     57  54  89 NE5       30.17F
MINOT          CLEAR     58  55  90 CALM      30.15F
MINOT AFB      CLEAR     58  58 100 W6        30.15S
BISMARCK       CLEAR     55  29  36 E3        30.17S
DICKINSON      CLEAR     53  51  93 CALM      30.17S FOG
GARRISON         N/A     56  55  97 NE3       30.17S
HETTINGER ARPT CLEAR     47  45  93 W6        30.17R
JAMESTOWN      CLEAR     52  50  93 CALM      30.15S
CARRINGTON     FAIR      50  50 100 W5        30.17S
CROSBY           N/A     50  50 100 CALM      30.19S
HARVEY         FOG       50  50 100 W6        30.16S VSB 1/4
HAZEN          PTSUNNY   54  54 100 CALM      30.17S FOG
LINTON         FAIR      52  52 100 E6        30.16S
MANDAN         FAIR      57  55  94 E7        30.18R
RUGBY          FAIR      54  54 100 SW3       30.16R
STANLEY        FOG       54  54 100 CALM      30.18S VSB 1/2
TIOGA          FOG       46  46 100 CALM      30.21S VSB 1/4
WATFORD CITY   FAIR      50  50 100 CALM      30.15F
$$

CITY           SKY/WX    TMP DP  RH WIND       PRES   REMARKS
GRAND FORKS    CLEAR     54  52  93 W5        30.11S
GRAND FORKS AF CLEAR     54  54  99 NW5       30.13R
DEVILS LAKE      N/A     57  52  82 CALM      30.14S VSB 1/2
FARGO          CLEAR     54  50  86 CALM      30.12R
CANDO          FAIR      50  50 100 CALM      30.16R
CAVALIER       FAIR      54  50  87 W5        30.12S
GRAFTON        FAIR      55  54  94 NW3       30.12S
GWINNER        SUNNY     54  54 100 CALM      30.15S
LANGDON        FOG       46  46 100 CALM      30.15S VSB<1/4
ROLLA          FAIR      52  52 100 W7        30.17S
WALHALLA         N/A     52  52 100 CALM        N/A
$$

CITY           SKY/WX    TMP DP  RH WIND       PRES   REMARKS
ABERDEEN       PTCLDY    48  48 100 W3        30.15S
MOBRIDGE       CLOUDY    60  55  83 SE6       30.13F
BUFFALO          N/A     59  49  69 CALM      30.11S
RAPID CITY     CLEAR     51  49  92 CALM      30.20S
GLASGOW        CLEAR     61  54  77 E12       30.17S
SIDNEY         CLEAR     57  54  88 NW3       30.18S
WOLF POINT     CLEAR     56  52  86 CALM      30.18S
GLENDIVE       CLEAR     55  48  76 NW6       30.19S
MILES CITY     CLEAR     63  47  55 CALM      30.19R
BAKER          CLEAR     53  50  89 S3        30.20R
$$

CITY           SKY/WX    TMP DP  RH WIND       PRES   REMARKS
BILLINGS       PTCLDY    66  54  65 SW12      30.22S
GREAT FALLS    CLEAR     65  45  48 E5        30.16S
REGINA         CLEAR     57  55  94 SE2       30.19S
ESTEVAN        PTCLDY    52  50  93 CALM      30.18S
$$



USA.gov is the U.S. government's official web portal to all federal, state and local government web resources and services.